Location: Trebic
(49.2170°N, 15.8830°E)
Time: 10:35:18
(UTC+02:00)

Transit 4A - Pass Details

Date: 30 August 2019
Orbit: 867 x 978 km, 66.8° (Epoch: 21 October)

Event Time Altitude Azimuth Distance (km) Brightness Sun altitude
Rises 23:00:27 0° 317° (NW) 3,662 12.3 -26.5°
Reaches altitude 10° 23:03:51 10° 335° (NNW) 2,698 11.3 -26.8°
Maximum altitude 23:08:18 20° 20° (NNE) 2,063 10.1 -27.2°
Drops below altitude 10° 23:12:40 10° 66° (ENE) 2,642 10.2 -27.6°
Enters shadow 23:13:22 - 70° (ENE) 2,821 10.3 -27.6°
Sets 23:15:56 0° 83° (E) 3,561 - -27.8°
